When you browse on this site, cookies collect data to enhance your experience and personalize the content and advertising you see.
Visit our Privacy Policy to learn more. By continuing to use the site, you agree to this use of cookies and data.

Hourly Weather Zalaegerszeg

Today, 7 July, Tuesday

Time Temperature Precipitation Wind Pressure Humidity
00:00 +14°C° 2.4 mm 7 mps 747 mmHg 88%
01:00 +12°C° 0 mm 7 mps 748 mmHg 91%
02:00 +13°C° 2.5 mm 6 mps 748 mmHg 93%
03:00 +13°C° 2.5 mm 5 mps 748 mmHg 94%
04:00 +13°C° 2.5 mm 3 mps 749 mmHg 95%
05:00 +13°C° 0.3 mm 4 mps 749 mmHg 91%
06:00 +14°C° 0.3 mm 4 mps 750 mmHg 87%
07:00 +16°C° 0 mm 3 mps 750 mmHg 84%
08:00 +17°C° 0.1 mm 4 mps 750 mmHg 74%
09:00 +19°C° 0.1 mm 5 mps 750 mmHg 64%
10:00 +20°C° 0.1 mm 6 mps 750 mmHg 54%
11:00 +21°C° 0 mm 5 mps 750 mmHg 52%
12:00 +21°C° 0 mm 5 mps 749 mmHg 50%
13:00 +22°C° 0 mm 5 mps 750 mmHg 47%
14:00 +22°C° 0 mm 5 mps 749 mmHg 48%
15:00 +22°C° 0 mm 5 mps 749 mmHg 49%
16:00 +22°C° 0 mm 4 mps 748 mmHg 49%
17:00 +21°C° 0 mm 4 mps 749 mmHg 56%
18:00 +19°C° 0 mm 3 mps 749 mmHg 62%
19:00 +18°C° 0 mm 2 mps 749 mmHg 68%
20:00 +18°C° 0 mm 1 mps 749 mmHg 70%
21:00 +16°C° 0 mm 1 mps 749 mmHg 72%
22:00 +13°C° 0 mm 0 mps 750 mmHg 74%
23:00 +14°C° 0 mm 1 mps 750 mmHg 75%

Tomorrow, 8 July, Wednesday

Time Temperature Precipitation Wind Pressure Humidity
00:00 +14°C° 0 mm 1 mps 750 mmHg 75%
01:00 +13°C° 0 mm 1 mps 750 mmHg 76%
02:00 +13°C° 0 mm 1 mps 750 mmHg 77%
03:00 +13°C° 0 mm 1 mps 750 mmHg 79%
04:00 +12°C° 0 mm 1 mps 750 mmHg 80%
05:00 +14°C° 0 mm 1 mps 750 mmHg 75%
06:00 +16°C° 0 mm 1 mps 750 mmHg 71%
07:00 +19°C° 0 mm 1 mps 750 mmHg 66%
08:00 +19°C° 0 mm 2 mps 750 mmHg 61%
09:00 +21°C° 0 mm 2 mps 750 mmHg 55%
10:00 +24°C° 0 mm 2 mps 750 mmHg 50%
11:00 +24°C° 0 mm 3 mps 749 mmHg 48%
12:00 +25°C° 0 mm 3 mps 749 mmHg 47%
13:00 +26°C° 0 mm 3 mps 748 mmHg 45%
14:00 +26°C° 0 mm 3 mps 748 mmHg 45%
15:00 +26°C° 0 mm 3 mps 748 mmHg 46%
16:00 +27°C° 0 mm 3 mps 748 mmHg 46%
17:00 +25°C° 0 mm 2 mps 748 mmHg 52%
18:00 +24°C° 0 mm 2 mps 748 mmHg 59%
19:00 +22°C° 0 mm 1 mps 748 mmHg 65%
20:00 +21°C° 0 mm 1 mps 748 mmHg 67%
21:00 +20°C° 0 mm 1 mps 749 mmHg 68%
22:00 +18°C° 0 mm 1 mps 749 mmHg 70%
23:00 +16°C° 0 mm 0 mps 749 mmHg 71%

Day after tomorrow, 9 July, Thursday

Time Temperature Precipitation Wind Pressure Humidity
00:00 +16°C° 0 mm 0 mps 749 mmHg 72%
01:00 +15°C° 0 mm 0 mps 750 mmHg 73%
02:00 +15°C° 0 mm 0 mps 750 mmHg 74%
03:00 +15°C° 0 mm 0 mps 750 mmHg 76%
04:00 +14°C° 0 mm 0 mps 750 mmHg 77%
05:00 +18°C° 0 mm 1 mps 750 mmHg 75%
06:00 +19°C° 0 mm 1 mps 750 mmHg 73%
07:00 +20°C° 0 mm 2 mps 750 mmHg 71%
08:00 +23°C° 0 mm 2 mps 751 mmHg 65%
09:00 +24°C° 0 mm 2 mps 751 mmHg 58%
10:00 +26°C° 0 mm 2 mps 751 mmHg 52%
11:00 +27°C° 0 mm 2 mps 750 mmHg 49%
12:00 +28°C° 0 mm 2 mps 750 mmHg 45%
13:00 +29°C° 0 mm 2 mps 750 mmHg 42%
14:00 +29°C° 0 mm 2 mps 749 mmHg 42%
15:00 +30°C° 0 mm 2 mps 749 mmHg 41%
16:00 +30°C° 0 mm 2 mps 749 mmHg 41%
17:00 +28°C° 0 mm 2 mps 749 mmHg 48%
18:00 +27°C° 0 mm 1 mps 748 mmHg 56%
19:00 +25°C° 0 mm 1 mps 748 mmHg 63%
20:00 +24°C° 0 mm 1 mps 748 mmHg 65%
21:00 +23°C° 0 mm 2 mps 749 mmHg 67%
22:00 +21°C° 0 mm 2 mps 749 mmHg 70%
23:00 +20°C° 0 mm 2 mps 749 mmHg 72%

10 July, Friday

Time Temperature Precipitation Wind Pressure Humidity
00:00 +19°C° 0 mm 2 mps 749 mmHg 75%
01:00 +19°C° 0 mm 2 mps 748 mmHg 78%
02:00 +18°C° 0 mm 2 mps 748 mmHg 81%
03:00 +19°C° 0 mm 1 mps 748 mmHg 83%
04:00 +18°C° 0 mm 1 mps 748 mmHg 86%
05:00 +19°C° 0 mm 2 mps 748 mmHg 81%
06:00 +20°C° 0 mm 2 mps 748 mmHg 77%
07:00 +23°C° 0 mm 2 mps 748 mmHg 72%
08:00 +25°C° 0 mm 3 mps 748 mmHg 66%
09:00 +26°C° 0 mm 3 mps 748 mmHg 60%
10:00 +28°C° 0 mm 3 mps 747 mmHg 54%
11:00 +29°C° 0 mm 4 mps 747 mmHg 50%
12:00 +32°C° 0 mm 4 mps 747 mmHg 46%
13:00 +33°C° 0 mm 4 mps 746 mmHg 43%
14:00 +33°C° 0 mm 4 mps 746 mmHg 43%
15:00 +33°C° 0 mm 3 mps 745 mmHg 44%
16:00 +33°C° 0 mm 3 mps 745 mmHg 45%
17:00 +30°C° 0 mm 3 mps 745 mmHg 52%
18:00 +29°C° 0 mm 3 mps 744 mmHg 58%
19:00 +27°C° 0 mm 2 mps 744 mmHg 65%
20:00 +26°C° 0 mm 2 mps 744 mmHg 68%
21:00 +24°C° 0 mm 2 mps 745 mmHg 71%
22:00 +22°C° 0 mm 3 mps 745 mmHg 74%
23:00 +22°C° 0.2 mm 3 mps 745 mmHg 79%

11 July, Saturday

Time Temperature Precipitation Wind Pressure Humidity
00:00 +21°C° 0.2 mm 4 mps 745 mmHg 83%
01:00 +20°C° 0.2 mm 5 mps 746 mmHg 87%
02:00 +20°C° 0 mm 5 mps 746 mmHg 86%
03:00 +19°C° 0 mm 5 mps 746 mmHg 86%
04:00 +19°C° 0 mm 5 mps 746 mmHg 86%
05:00 +20°C° 0 mm 5 mps 746 mmHg 82%
06:00 +20°C° 0 mm 6 mps 746 mmHg 78%
07:00 +21°C° 0 mm 6 mps 746 mmHg 75%
08:00 +22°C° 0 mm 7 mps 747 mmHg 71%
09:00 +22°C° 0 mm 7 mps 747 mmHg 68%
10:00 +23°C° 0 mm 8 mps 747 mmHg 64%
11:00 +21°C° 0.3 mm 8 mps 747 mmHg 69%
12:00 +18°C° 0.3 mm 9 mps 748 mmHg 74%
13:00 +16°C° 0.3 mm 9 mps 748 mmHg 80%
14:00 +15°C° 0.2 mm 9 mps 748 mmHg 82%
15:00 +13°C° 0.2 mm 8 mps 749 mmHg 85%
16:00 +12°C° 0.2 mm 7 mps 750 mmHg 87%
17:00 +12°C° 0.4 mm 7 mps 750 mmHg 87%
18:00 +13°C° 0.4 mm 6 mps 750 mmHg 87%
19:00 +13°C° 0.4 mm 5 mps 751 mmHg 86%
20:00 +13°C° 0.6 mm 5 mps 751 mmHg 87%
21:00 +12°C° 0.6 mm 4 mps 752 mmHg 88%
22:00 +12°C° 0.6 mm 3 mps 752 mmHg 88%
23:00 +12°C° 0 mm 3 mps 752 mmHg 89%

12 July, Sunday

Time Temperature Precipitation Wind Pressure Humidity
00:00 +11°C° 0 mm 3 mps 752 mmHg 89%
01:00 +11°C° 0 mm 3 mps 752 mmHg 89%
02:00 +11°C° 0 mm 3 mps 752 mmHg 91%
03:00 +10°C° 0 mm 3 mps 752 mmHg 92%
04:00 +10°C° 0 mm 2 mps 752 mmHg 94%
05:00 +12°C° 0 mm 3 mps 753 mmHg 88%
06:00 +13°C° 0 mm 4 mps 753 mmHg 82%
07:00 +15°C° 0 mm 4 mps 754 mmHg 75%
08:00 +16°C° 0 mm 5 mps 754 mmHg 67%
09:00 +19°C° 0 mm 5 mps 754 mmHg 59%
10:00 +20°C° 0 mm 6 mps 754 mmHg 50%
11:00 +21°C° 0 mm 6 mps 754 mmHg 48%
12:00 +22°C° 0 mm 6 mps 754 mmHg 45%
13:00 +22°C° 0 mm 6 mps 753 mmHg 43%
14:00 +22°C° 0 mm 6 mps 753 mmHg 43%
15:00 +22°C° 0 mm 5 mps 753 mmHg 43%
16:00 +22°C° 0 mm 5 mps 753 mmHg 43%
17:00 +21°C° 0 mm 4 mps 753 mmHg 50%
18:00 +20°C° 0 mm 4 mps 753 mmHg 56%
19:00 +18°C° 0 mm 3 mps 753 mmHg 62%
20:00 +17°C° 0 mm 3 mps 754 mmHg 65%
21:00 +16°C° 0 mm 3 mps 754 mmHg 67%
22:00 +13°C° 0 mm 3 mps 754 mmHg 69%
23:00 +13°C° 0 mm 3 mps 754 mmHg 73%
Show more